Location: Newark
(7.0858°N, 171.3717°E)
Time: 02:36:00
(UTC+00:00)

Transit 2A - Pass Details

Date: 27 November 2020
Orbit: 598 x 960 km, 66.7° (Epoch: 20 January)

Event Time Altitude Azimuth Distance (km) Brightness Sun altitude
Rises 17:08:43 0° 321° (NW) 2,960 - -19.7°
Reaches altitude 10° 17:11:21 10° 309° (NW) 2,006 - -19.1°
Maximum altitude 17:15:05 26° 252° (WSW) 1,204 - -18.2°
Exits shadow 17:15:25 26° 244° (WSW) 1,210 6.7 -18.1°
Drops below altitude 10° 17:18:42 10° 195° (SSW) 1,935 8.2 -17.4°
Sets 17:21:12 0° 182° (S) 2,832 9.2 -16.8°
